| time (UTC) | temp F | wind direction | speed knots | gust knots | rain 1hr in | rain 24hr in | rain mn in | humidity % | barometer mb |
| 20260505183831 | 76 | 346 | 2.6 | 7.0 | 0.00 | 0.00 | 0.00 | 34 | 1011.4 |
| 20260505182931 | 76 | 354 | 3.5 | 7.8 | 0.00 | 0.00 | 0.00 | 34 | 1011.3 |
| 20260505182052 | 76 | 351 | 3.5 | 9.6 | 0.00 | 0.00 | 0.00 | 33 | 1011.3 |
| 20260505181131 | 76 | 348 | 2.6 | 9.6 | 0.00 | 0.00 | 0.00 | 33 | 1011.2 |
| 20260505180231 | 76 | 8 | 3.5 | 7.8 | 0.00 | 0.00 | 0.00 | 33 | 1011.4 |
| 20260505175331 | 77 | 333 | 3.5 | 8.7 | 0.00 | 0.00 | 0.00 | 33 | 1011.5 |
| 20260505174431 | 77 | 346 | 3.5 | 7.8 | 0.00 | 0.00 | 0.00 | 33 | 1011.4 |
| 20260505173531 | 77 | 349 | 2.6 | 9.6 | 0.00 | 0.00 | 0.00 | 33 | 1011.4 |
| 20260505172631 | 77 | 330 | 3.5 | 7.8 | 0.00 | 0.00 | 0.00 | 31 | 1011.5 |
| 20260505171731 | 77 | 359 | 3.5 | 8.7 | 0.00 | 0.00 | 0.00 | 31 | 1011.6 |
| 20260505170852 | 77 | 347 | 3.5 | 8.7 | 0.00 | 0.00 | 0.00 | 32 | 1011.6 |
| 20260505165931 | 77 | 348 | 3.5 | 9.6 | 0.00 | 0.00 | 0.00 | 31 | 1011.7 |
| 20260505165031 | 77 | 351 | 2.6 | 8.7 | 0.00 | 0.00 | 0.00 | 32 | 1011.7 |
| 20260505164132 | 77 | 46 | 2.6 | 7.0 | 0.00 | 0.00 | 0.00 | 32 | 1011.6 |
| 20260505163231 | 77 | 34 | 4.3 | 8.7 | 0.00 | 0.00 | 0.00 | 31 | 1011.8 |
| 20260505162331 | 76 | 358 | 4.3 | 10.4 | 0.00 | 0.00 | 0.00 | 31 | 1011.8 |
| 20260505161431 | 77 | 322 | 1.7 | 10.4 | 0.00 | 0.00 | 0.00 | 31 | 1011.8 |
| 20260505160531 | 78 | 360 | 1.7 | 5.2 | 0.00 | 0.00 | 0.00 | 30 | 1011.7 |
| 20260505152952 | 77 | 289 | 2.6 | 7.0 | 0.00 | 0.00 | 0.00 | 31 | 1011.9 |
| 20260505152030 | 76 | 329 | 2.6 | 7.8 | 0.00 | 0.00 | 0.00 | 31 | 1012.0 |
| 20260505151130 | 76 | 265 | 1.7 | 7.8 | 0.00 | 0.00 | 0.00 | 31 | 1012.1 |
| 20260505150230 | 76 | 267 | 0.9 | 3.5 | 0.00 | 0.00 | 0.00 | 33 | 1012.2 |
| 20260505124731 | 72 | 250 | 1.7 | 6.1 | 0.00 | 0.00 | 0.00 | 39 | 1013.5 |
| 20260505123830 | 71 | 231 | 3.5 | 6.1 | 0.00 | 0.00 | 0.00 | 40 | 1013.6 |
| 20260505122930 | 71 | 246 | 2.6 | 8.7 | 0.00 | 0.00 | 0.00 | 40 | 1013.7 |
| 20260505122030 | 72 | 275 | 3.5 | 9.6 | 0.00 | 0.00 | 0.00 | 40 | 1013.9 |
| 20260505121130 | 71 | 8 | 4.3 | 9.6 | 0.00 | 0.00 | 0.00 | 41 | 1014.1 |
| 20260505120230 | 70 | 342 | 3.5 | 10.4 | 0.00 | 0.00 | 0.00 | 41 | 1014.3 |
| 20260505115330 | 70 | 277 | 2.6 | 10.4 | 0.00 | 0.00 | 0.00 | 41 | 1014.4 |
| 20260505114430 | 70 | 321 | 1.7 | 7.8 | 0.00 | 0.00 | 0.00 | 42 | 1014.5 |
| 20260505113530 | 70 | 261 | 1.7 | 7.0 | 0.00 | 0.00 | 0.00 | 43 | 1014.6 |
| 20260505112630 | 69 | 277 | 2.6 | 8.7 | 0.00 | 0.00 | 0.00 | 43 | 1014.8 |
| 20260505111730 | 68 | 298 | 3.5 | 9.6 | 0.00 | 0.00 | 0.00 | 44 | 1014.8 |
| 20260505110830 | 68 | 347 | 1.7 | 8.7 | 0.00 | 0.00 | 0.00 | 44 | 1015.0 |
| 20260505101429 | 67 | 15 | 1.7 | 7.8 | 0.00 | 0.00 | 0.00 | 46 | 1015.2 |
| 20260505100530 | 66 | 349 | 1.7 | 6.1 | 0.00 | 0.00 | 0.00 | 48 | 1015.3 |
| 20260505095629 | 66 | 307 | 0.9 | 4.3 | 0.00 | 0.00 | 0.00 | 49 | 1015.3 |
| 20260505094730 | 65 | 324 | 2.6 | 5.2 | 0.00 | 0.00 | 0.00 | 51 | 1015.4 |
| 20260505093851 | 64 | 335 | 2.6 | 7.8 | 0.00 | 0.00 | 0.00 | 51 | 1015.4 |
| 20260505092950 | 64 | 335 | 2.6 | 7.8 | 0.00 | 0.00 | 0.00 | 52 | 1015.3 |
| 20260505092029 | 64 | 313 | 1.7 | 5.2 | 0.00 | 0.00 | 0.00 | 53 | 1015.3 |
| 20260505091150 | 64 | 331 | 0.9 | 5.2 | 0.00 | 0.00 | 0.00 | 53 | 1015.4 |
| 20260505090229 | 64 | 11 | 1.7 | 3.5 | 0.00 | 0.00 | 0.00 | 54 | 1015.5 |
| 20260505085329 | 63 | 329 | 1.7 | 7.8 | 0.00 | 0.00 | 0.00 | 54 | 1015.3 |
| 20260505084429 | 64 | 5 | 0.9 | 3.5 | 0.00 | 0.00 | 0.00 | 56 | 1015.4 |
| 20260505083529 | 63 | 23 | 0.9 | 4.3 | 0.00 | 0.00 | 0.00 | 57 | 1015.4 |
| 20260505082629 | 62 | 356 | 0.9 | 3.5 | 0.00 | 0.00 | 0.00 | 58 | 1015.5 |
| 20260505081729 | 62 | 358 | 0.9 | 4.3 | 0.00 | 0.00 | 0.00 | 58 | 1015.6 |
| 20260505080829 | 61 | 312 | 0.9 | 3.5 | 0.00 | 0.00 | 0.00 | 59 | 1015.5 |
| 20260505075929 | 61 | 343 | 1.7 | 5.2 | 0.00 | 0.00 | 0.00 | 59 | 1015.7 |
| 20260505075029 | 60 | 347 | 1.7 | 7.0 | 0.00 | 0.00 | 0.00 | 60 | 1015.7 |
| 20260505074129 | 60 | 331 | 1.7 | 4.3 | 0.00 | 0.00 | 0.00 | 60 | 1015.6 |
| 20260505073229 | 60 | 360 | 1.7 | 4.3 | 0.00 | 0.00 | 0.00 | 61 | 1015.6 |
| 20260505072329 | 60 | 19 | 1.7 | 4.3 | 0.00 | 0.00 | 0.00 | 61 | 1015.6 |
| 20260505071430 | 59 | 355 | 2.6 | 5.2 | 0.00 | 0.00 | 0.00 | 61 | 1015.6 |
| 20260505070529 | 59 | 17 | 2.6 | 7.0 | 0.00 | 0.00 | 0.00 | 62 | 1015.5 |
| 20260505065629 | 59 | 344 | 1.7 | 5.2 | 0.00 | 0.00 | 0.00 | 62 | 1015.5 |
| 20260505064750 | 59 | 356 | 1.7 | 4.3 | 0.00 | 0.00 | 0.00 | 62 | 1015.5 |
| 20260505063829 | 59 | 351 | 1.7 | 4.3 | 0.00 | 0.00 | 0.00 | 62 | 1015.5 |
| 20260505062929 | 59 | 346 | 1.7 | 4.3 | 0.00 | 0.00 | 0.00 | 62 | 1015.4 |
| 20260505062029 | 60 | 347 | 0.9 | 3.5 | 0.00 | 0.00 | 0.00 | 62 | 1015.3 |
| 20260505061129 | 59 | 340 | 0.9 | 2.6 | 0.00 | 0.00 | 0.00 | 63 | 1015.3 |
| 20260505060251 | 59 | 342 | 0.9 | 4.3 | 0.00 | 0.00 | 0.00 | 64 | 1015.2 |
| 20260505055350 | 59 | 4 | 0.0 | 3.5 | 0.00 | 0.00 | 0.00 | 63 | 1015.1 |
| 20260505054450 | 59 | 17 | 0.9 | 2.6 | 0.00 | 0.00 | 0.00 | 64 | 1014.9 |
| 20260505053529 | 59 | 15 | 0.9 | 4.3 | 0.00 | 0.00 | 0.00 | 64 | 1014.8 |
| 20260505052629 | 59 | 356 | 1.7 | 4.3 | 0.00 | 0.00 | 0.00 | 64 | 1014.8 |
| 20260505051729 | 59 | 19 | 1.7 | 6.1 | 0.00 | 0.00 | 0.00 | 63 | 1014.8 |
| 20260505050829 | 59 | 12 | 1.7 | 7.0 | 0.00 | 0.00 | 0.00 | 63 | 1014.6 |
| 20260505041450 | 60 | 24 | 1.7 | 5.2 | 0.00 | 0.00 | 0.00 | 63 | 1014.6 |
| 20260505040529 | 60 | 33 | 1.7 | 6.1 | 0.00 | 0.00 | 0.00 | 63 | 1014.6 |
| 20260505035629 | 60 | 10 | 1.7 | 6.1 | 0.00 | 0.00 | 0.00 | 62 | 1014.6 |
| 20260505034749 | 60 | 349 | 2.6 | 7.8 | 0.00 | 0.00 | 0.00 | 62 | 1014.6 |
| 20260505033828 | 60 | 357 | 2.6 | 8.7 | 0.00 | 0.00 | 0.00 | 62 | 1014.6 |
| 20260505032928 | 61 | 5 | 1.7 | 7.0 | 0.00 | 0.00 | 0.00 | 63 | 1014.6 |
| 20260505032029 | 61 | 7 | 2.6 | 7.0 | 0.00 | 0.00 | 0.00 | 63 | 1014.6 |
| 20260505031129 | 61 | 7 | 2.6 | 7.0 | 0.00 | 0.00 | 0.00 | 62 | 1014.6 |
| 20260505030228 | 61 | 12 | 3.5 | 8.7 | 0.00 | 0.00 | 0.00 | 62 | 1014.6 |
| 20260505025328 | 61 | 6 | 2.6 | 7.8 | 0.00 | 0.00 | 0.00 | 62 | 1014.6 |
| 20260505024449 | 61 | 19 | 2.6 | 7.8 | 0.00 | 0.00 | 0.00 | 61 | 1014.6 |
| 20260505023549 | 61 | 12 | 2.6 | 7.0 | 0.00 | 0.00 | 0.00 | 61 | 1014.7 |
| 20260505022628 | 62 | 9 | 2.6 | 7.8 | 0.00 | 0.00 | 0.00 | 60 | 1014.7 |
| 20260505021728 | 62 | 3 | 1.7 | 7.8 | 0.00 | 0.00 | 0.00 | 60 | 1014.7 |
| 20260505020828 | 62 | 26 | 2.6 | 7.0 | 0.00 | 0.00 | 0.00 | 60 | 1014.7 |
| 20260505015928 | 62 | 33 | 2.6 | 7.0 | 0.00 | 0.00 | 0.00 | 60 | 1014.7 |
| 20260505015028 | 62 | 41 | 1.7 | 5.2 | 0.00 | 0.00 | 0.00 | 59 | 1014.6 |
| 20260505014128 | 63 | 14 | 1.7 | 5.2 | 0.00 | 0.00 | 0.00 | 59 | 1014.7 |
| 20260505013229 | 63 | 1 | 1.7 | 7.8 | 0.00 | 0.00 | 0.00 | 58 | 1014.8 |
| 20260505012349 | 63 | 351 | 1.7 | 4.3 | 0.00 | 0.00 | 0.00 | 58 | 1014.9 |
| 20260505011428 | 63 | 341 | 2.6 | 7.0 | 0.00 | 0.00 | 0.00 | 58 | 1014.9 |
| 20260505010528 | 63 | 339 | 1.7 | 7.0 | 0.00 | 0.00 | 0.00 | 58 | 1015.0 |
| 20260505005649 | 63 | 336 | 2.6 | 7.8 | 0.00 | 0.00 | 0.00 | 58 | 1015.1 |
| 20260505004728 | 63 | 344 | 1.7 | 7.8 | 0.00 | 0.00 | 0.00 | 57 | 1015.2 |
| 20260505003828 | 63 | 341 | 1.7 | 5.2 | 0.00 | 0.00 | 0.00 | 57 | 1015.1 |
| 20260505002929 | 63 | 334 | 2.6 | 7.0 | 0.00 | 0.00 | 0.00 | 57 | 1015.2 |
| 20260505002049 | 63 | 330 | 2.6 | 7.0 | 0.00 | 0.00 | 0.00 | 57 | 1015.3 |
| 20260505001128 | 64 | 330 | 2.6 | 7.0 | 0.00 | 0.00 | 0.00 | 57 | 1015.3 |
| 20260505000228 | 64 | 325 | 2.6 | 7.0 | 0.00 | 0.00 | 0.00 | 57 | 1015.4 |
| 20260504235328 | 64 | 331 | 2.6 | 7.8 | 0.00 | 0.00 | 0.00 | 57 | 1015.3 |
| 20260504234428 | 64 | 341 | 1.7 | 5.2 | 0.00 | 0.00 | 0.00 | 57 | 1015.2 |
| 20260504233528 | 64 | 355 | 1.7 | 6.1 | 0.00 | 0.00 | 0.00 | 58 | 1015.4 |
| 20260504232628 | 63 | 340 | 0.0 | 6.1 | 0.00 | 0.00 | 0.00 | 61 | 1015.3 |
| 20260504231728 | 63 | 229 | 0.0 | 0.9 | 0.00 | 0.00 | 0.00 | 70 | 1015.3 |
| 20260504230828 | 63 | 229 | 0.0 | 0.9 | 0.00 | 0.00 | 0.00 | 70 | 1015.3 |
| 20260504225928 | 63 | 229 | 0.0 | 0.9 | 0.00 | 0.00 | 0.00 | 71 | 1015.2 |
| 20260504225028 | 63 | 228 | 0.9 | 2.6 | 0.00 | 0.00 | 0.00 | 70 | 1015.2 |
| 20260504224128 | 64 | 223 | 0.9 | 3.5 | 0.00 | 0.00 | 0.00 | 69 | 1015.1 |
| 20260504223228 | 64 | 208 | 0.9 | 3.5 | 0.00 | 0.00 | 0.00 | 68 | 1015.1 |
| 20260504222328 | 64 | 217 | 0.0 | 3.5 | 0.00 | 0.00 | 0.00 | 68 | 1015.1 |
| 20260504221428 | 64 | 228 | 0.9 | 3.5 | 0.00 | 0.00 | 0.00 | 67 | 1015.1 |
| 20260504220527 | 64 | 229 | 0.9 | 3.5 | 0.00 | 0.00 | 0.00 | 67 | 1015.1 |
| 20260504215649 | 64 | 233 | 0.9 | 3.5 | 0.00 | 0.00 | 0.00 | 67 | 1015.1 |
| 20260504214749 | 64 | 227 | 0.9 | 3.5 | 0.00 | 0.00 | 0.00 | 67 | 1015.0 |
| 20260504213828 | 64 | 222 | 0.9 | 3.5 | 0.00 | 0.00 | 0.00 | 66 | 1015.0 |
| 20260504212949 | 64 | 232 | 1.7 | 2.6 | 0.00 | 0.00 | 0.00 | 66 | 1015.0 |
| 20260504212028 | 65 | 257 | 2.6 | 6.1 | 0.00 | 0.00 | 0.00 | 65 | 1015.0 |
| 20260504211127 | 65 | 246 | 3.5 | 8.7 | 0.00 | 0.00 | 0.00 | 65 | 1015.1 |
| 20260504210248 | 65 | 239 | 2.6 | 7.0 | 0.00 | 0.00 | 0.00 | 64 | 1015.0 |
| 20260504205327 | 65 | 228 | 2.6 | 7.0 | 0.00 | 0.00 | 0.00 | 64 | 1014.9 |
| 20260504204427 | 65 | 229 | 2.6 | 6.1 | 0.00 | 0.00 | 0.00 | 63 | 1014.8 |
| 20260504203527 | 66 | 212 | 2.6 | 6.1 | 0.00 | 0.00 | 0.00 | 62 | 1014.6 |
| 20260504202627 | 66 | 228 | 2.6 | 6.1 | 0.00 | 0.00 | 0.00 | 62 | 1014.5 |
| 20260504201727 | 66 | 227 | 3.5 | 7.8 | 0.00 | 0.00 | 0.00 | 61 | 1014.4 |
| 20260504200827 | 66 | 233 | 3.5 | 9.6 | 0.00 | 0.00 | 0.00 | 60 | 1014.3 |
| 20260504195927 | 67 | 242 | 4.3 | 9.6 | 0.00 | 0.00 | 0.00 | 60 | 1014.1 |
| 20260504195048 | 67 | 240 | 5.2 | 11.3 | 0.00 | 0.00 | 0.00 | 59 | 1014.0 |
| 20260504194127 | 67 | 247 | 6.1 | 12.2 | 0.00 | 0.00 | 0.00 | 58 | 1013.8 |
| 20260504193227 | 68 | 246 | 6.1 | 15.6 | 0.00 | 0.00 | 0.00 | 58 | 1013.8 |
| 20260504192348 | 68 | 258 | 5.2 | 15.6 | 0.00 | 0.00 | 0.00 | 58 | 1013.8 |
| 20260504191428 | 68 | 257 | 6.1 | 12.2 | 0.00 | 0.00 | 0.00 | 57 | 1013.7 |
| 20260504190527 | 69 | 247 | 5.2 | 14.8 | 0.00 | 0.00 | 0.00 | 57 | 1013.6 |
| 20260504185627 | 69 | 249 | 6.1 | 12.2 | 0.00 | 0.00 | 0.00 | 56 | 1013.6 |
| 20260504184728 | 70 | 253 | 7.0 | 13.0 | 0.00 | 0.00 | 0.00 | 56 | 1013.5 |